Wind_Speed
25 24 22 20 19 19 18 19 20 19 16 14 12 10 9 8 8 7 5 2 1 4 7 10 11 11 13 15 15 15 14 17
25 23 21 21 21 21 20 20 20 19 14 12 10 8 8 8 8 6 5 3 1 4 6 7 8 10 13 14 15 13 11 17
29 26 26 24 22 21 20 18 18 15 12 11 11 10 9 10 9 8 5 3 1 2 4 8 9 9 11 12 12 12 8 13
31 28 27 24 23 23 21 19 18 15 15 14 13 12 11 9 8 7 6 4 1 3 4 6 8 8 9 10 10 11 9 11
31 28 26 24 22 21 20 20 19 17 18 13 13 10 10 9 9 9 7 4 2 2 4 6 6 7 8 8 9 8 8 8
30 28 25 23 21 20 20 20 19 18 18 14 14 12 15 12 9 8 6 4 2 2 3 4 6 7 9 9 9 8 8 7
24 24 22 22 22 21 21 21 19 16 16 15 15 15 14 12 10 8 6 5 4 4 4 5 6 7 7 8 8 8 7 7
16 21 22 22 22 20 20 19 18 17 16 15 14 15 14 13 11 8 7 6 5 4 4 5 6 7 8 8 9 9 8 6
11 16 19 20 20 20 19 19 19 18 17 17 16 18 15 14 14 11 9 7 5 4 5 5 6 7 7 7 7 6 7 6
9 13 17 19 19 19 19 19 18 18 18 18 17 16 16 14 12 10 8 6 6 6 6 6 6 6 5 4 5 4 4 5
8 13 17 18 19 19 18 19 18 17 18 18 18 17 15 14 11 8 8 8 8 7 5 5 5 5 4 2 2 6 4 5
6 10 13 15 17 17 18 18 18 20 19 19 18 18 16 13 10 10 9 7 8 6 4 5 5 3 2 2 2 3 3 4
2 8 12 17 18 19 17 17 21 18 17 17 18 15 13 13 12 12 10 8 7 6 6 4 2 2 2 0 0 2 2 4
1 5 12 16 18 18 22 22 18 17 20 19 17 16 14 14 13 12 11 9 9 6 4 4 3 2 1 0 2 2 3 4
3 6 11 14 18 21 23 21 24 23 26 21 19 17 20 16 14 11 11 9 7 6 5 4 3 2 2 1 3 3 4 5
17 14 14 13 17 20 20 21 24 24 25 23 20 23 22 19 15 13 12 9 8 7 6 4 3 4 6 5 3 3 3 4
13 17 17 19 21 23 23 23 23 25 28 29 29 26 23 21 17 13 12 12 10 9 7 6 4 6 6 6 6 3 0 1
9 10 15 17 21 24 24 26 29 29 28 32 27 28 25 21 18 14 14 13 13 11 12 10 8 5 6 7 9 4 2 1
6 5 7 9 12 17 21 31 34 33 35 30 29 27 24 21 20 17 15 14 12 12 11 8 7 6 5 5 6 3 1 2
Wind_Direction
206 200 197 194 191 183 181 182 189 189 190 188 188 189 192 185 175 169 163 148 55 3 349 348 348 341 337 337 338 337 338 321
205 200 196 192 193 187 185 187 189 188 181 172 170 170 178 179 179 173 177 185 282 338 335 335 343 344 347 347 349 352 350 339
199 199 198 195 194 190 186 186 188 177 175 170 172 167 165 181 184 185 186 197 244 316 346 349 354 352 348 351 357 7 3 356
197 201 202 198 197 193 191 188 183 179 181 183 178 183 185 179 179 190 192 202 262 334 353 358 351 349 345 349 356 4 13 6
201 202 203 202 202 197 194 191 187 186 194 182 188 175 169 176 174 195 192 196 218 325 337 339 335 333 338 343 349 358 6 10
204 201 203 202 200 201 196 195 190 195 190 188 182 178 190 184 176 177 195 204 236 288 307 321 330 329 330 334 339 347 360 8
207 196 202 202 201 199 196 197 194 195 189 188 183 184 177 175 174 170 184 227 256 275 301 317 320 326 330 333 337 340 354 353
206 188 201 203 201 199 197 197 194 190 185 183 180 178 176 178 173 176 188 218 243 268 294 313 314 316 317 326 331 333 337 344
205 203 204 202 199 198 196 193 190 185 181 176 177 182 174 182 191 202 208 227 254 270 279 283 297 305 318 325 324 333 334 345
194 198 201 201 201 199 197 190 188 182 177 178 176 177 191 200 207 213 221 239 250 254 261 276 283 290 294 318 324 333 355 349
205 205 202 200 203 200 195 191 190 182 179 184 189 195 202 207 203 217 239 239 244 244 258 269 274 278 287 339 13 327 339 341
219 212 206 204 197 199 196 193 186 184 186 190 195 201 203 201 205 225 221 237 231 238 242 250 264 280 333 340 316 326 2 12
227 208 201 196 197 197 196 191 194 195 198 202 204 200 202 205 211 212 212 208 214 223 230 235 227 269 269 199 54 343 12 25
301 213 204 201 203 200 199 207 214 213 220 221 206 206 212 209 209 209 201 198 213 210 195 194 205 208 243 294 81 10 357 13
296 229 211 206 207 205 214 217 218 214 224 216 213 217 208 204 201 190 189 196 187 182 192 201 199 189 210 168 102 58 29 15
251 244 230 221 221 212 217 219 231 215 215 211 221 216 201 202 199 193 190 183 176 176 178 166 172 202 215 162 86 91 70 44
261 257 235 234 229 222 217 216 212 209 216 216 219 212 219 205 197 190 190 188 186 183 176 173 194 243 222 208 145 121 79 11
284 254 245 247 233 223 216 212 211 219 214 221 219 215 211 210 201 190 192 195 202 203 200 208 221 242 240 222 209 213 265 341
280 281 259 247 221 214 208 212 213 215 224 222 215 212 214 205 194 200 207 212 209 208 207 210 224 222 236 225 219 236 278 33
Height
1479 1484 1488 1491 1493 1493 1492 1493 1495 1498 1501 1503 1504 1506 1507 1508 1510 1511 1512 1514 1515 1515 1516 1515 1514 1514 1513 1511 1506 1506 1505 1501
1476 1480 1484 1487 1489 1489 1489 1490 1492 1495 1498 1501 1504 1505 1506 1507 1508 1510 1511 1511 1512 1513 1515 1515 1513 1512 1512 1509 1508 1505 1504 1500
1468 1474 1477 1480 1484 1487 1489 1490 1492 1497 1500 1502 1504 1504 1506 1506 1508 1508 1510 1511 1512 1514 1512 1514 1513 1510 1508 1507 1507 1505 1504 1501
1461 1469 1473 1477 1480 1483 1486 1489 1491 1496 1498 1498 1500 1501 1503 1505 1507 1507 1508 1510 1511 1511 1511 1508 1511 1510 1509 1506 1505 1504 1505 1504
1455 1463 1470 1474 1479 1482 1485 1487 1490 1492 1493 1496 1498 1501 1504 1507 1507 1505 1505 1506 1507 1507 1508 1507 1507 1508 1507 1506 1504 1503 1502 1502
1449 1458 1464 1469 1475 1480 1484 1486 1487 1487 1490 1494 1496 1501 1500 1502 1503 1504 1505 1505 1505 1505 1505 1505 1506 1506 1506 1505 1503 1502 1502 1501
1445 1455 1464 1467 1470 1474 1480 1483 1484 1485 1489 1492 1495 1498 1498 1500 1502 1503 1504 1504 1503 1503 1503 1504 1504 1503 1504 1503 1501 1501 1499 1500
1445 1453 1461 1467 1470 1473 1477 1481 1483 1484 1486 1489 1492 1495 1497 1499 1500 1502 1502 1502 1501 1501 1500 1501 1502 1503 1502 1500 1499 1499 1497 1497
1449 1455 1461 1466 1469 1471 1475 1477 1481 1482 1483 1486 1488 1490 1492 1494 1495 1498 1499 1499 1500 1499 1499 1500 1500 1501 1499 1500 1500 1497 1498 1496
1450 1454 1458 1464 1467 1470 1473 1476 1478 1479 1481 1482 1485 1488 1489 1491 1493 1495 1495 1495 1498 1499 1498 1499 1499 1498 1498 1495 1497 1498 1497 1495
1449 1452 1455 1459 1463 1467 1471 1474 1475 1477 1478 1480 1483 1485 1486 1489 1490 1492 1494 1496 1496 1497 1496 1496 1496 1497 1495 1493 1496 1496 1497 1495
1451 1452 1455 1459 1462 1467 1472 1473 1475 1474 1474 1476 1478 1482 1484 1485 1487 1489 1492 1493 1497 1496 1494 1495 1495 1497 1493 1492 1494 1495 1495 1493
1451 1452 1453 1456 1460 1463 1468 1471 1470 1473 1474 1475 1476 1479 1482 1483 1485 1486 1488 1491 1494 1493 1492 1492 1495 1494 1493 1493 1493 1495 1494 1489
1450 1452 1453 1455 1459 1462 1461 1463 1466 1469 1472 1471 1474 1477 1479 1482 1482 1484 1485 1487 1490 1489 1490 1493 1491 1492 1493 1493 1488 1492 1491 1487
1447 1451 1452 1453 1456 1456 1456 1458 1462 1463 1463 1468 1470 1472 1478 1477 1479 1482 1483 1487 1487 1488 1489 1490 1489 1490 1493 1492 1488 1489 1491 1487
1442 1445 1448 1449 1451 1452 1453 1453 1455 1459 1461 1463 1466 1471 1473 1472 1475 1479 1480 1482 1486 1488 1487 1488 1488 1489 1491 1490 1487 1487 1489 1486
1437 1439 1442 1444 1445 1446 1447 1450 1452 1454 1457 1459 1460 1464 1465 1469 1472 1477 1479 1480 1481 1484 1485 1486 1485 1485 1488 1488 1485 1485 1484 1483
1435 1436 1437 1439 1440 1440 1442 1446 1446 1449 1452 1455 1458 1460 1464 1466 1469 1473 1478 1477 1476 1480 1482 1482 1481 1483 1486 1485 1482 1481 1481 1481
1435 1434 1435 1436 1437 1438 1440 1441 1442 1444 1445 1450 1453 1457 1460 1464 1466 1471 1474 1475 1475 1477 1480 1481 1480 1481 1483 1483 1481 1480 1480 1479